Regional Weather Roundup
Issued by NWS

Home | Current Version | Previous Version | Text Only | Print | Product List | Glossary Off
Versions: 1 2 3 4 5 6 7 8 9 10 11 12 13 14 15 16 17 18 19 20 21 22 23 24 25 26 27 28 29 30 31 32 33 34 35 36 37 38 39 40 41 42 43 44 45 46 47 48 49 50

000
ASUS43 KTOP 102159
RWRKS

WEATHER ROUNDUP FOR KANSAS
NATIONAL WEATHER SERVICE GOODLAND KS
400 PM CST SAT DEC 10 2016

NOTE:  "FAIR" INDICATES FEW OR NO CLOUDS BELOW 12,000 FEET WITH NO
SIGNIFICANT WEATHER AND/OR OBSTRUCTIONS TO VISIBILITY.

KSZ001>006-013>018-027>032-041>047-102300-
NORTHWEST KANSAS

CITY           SKY/WX    TMP DP  RH WIND       PRES   REMARKS
GOODLAND       CLOUDY    35  25  66 SE13      29.77S WCI  26
HAYS           CLOUDY    40  24  53 S15       29.91F WCI  32
HILL CITY      CLOUDY    38  25  59 S9        29.88F
RUSSELL        CLOUDY    40  25  55 S16       29.91F WCI  31
$$

KSZ061>065-074>080-084>089-102300-
SOUTHWEST KANSAS

CITY           SKY/WX    TMP DP  RH WIND       PRES   REMARKS
DODGE CITY     CLOUDY    43  27  53 S20       29.88F
ELKHART          N/A     64  31  29 S18         N/A
GARDEN CITY    CLOUDY    45  26  47 S15       29.84F
GREAT BEND     CLOUDY    42  25  50 S17       29.93F
LIBERAL        SUNNY     57  34  41 SE16      29.83F
$$

KSZ066>073-081>083-090>101-102300-
SOUTHEAST KANSAS

CITY           SKY/WX    TMP DP  RH WIND       PRES   REMARKS
CHANUTE        CLOUDY    41  19  41 S13       30.14F
COFFEYVILLE    CLOUDY    43  21  41 S15G24    30.16F
HUTCHINSON     CLOUDY    43  25  49 S21G29    29.99F
MEDICINE LODGE   N/A     46  27  47 S13G23    29.96F
NEWTON         CLOUDY    41  22  46 S18       30.01F
PARSONS        CLOUDY    42  20  41 S9        30.16F
WICHITA INTL   CLOUDY    44  23  43 S17G26    30.02F
WICHITA JABRA  CLOUDY    41  23  48 S20G28    30.02F
WINFIELD       CLOUDY    43  24  47 S20G30    30.08F
$$

KSZ007>012-019>026-033>040-048>060-102>105-102300-
NORTHEAST KANSAS

CITY           SKY/WX    TMP DP  RH WIND       PRES   REMARKS
CONCORDIA      CLOUDY    39  23  52 S16G26    30.00F WCI  30
EMPORIA        CLOUDY    39  19  44 S18G24    30.07F WCI  30
LAWRENCE       CLOUDY    36  22  56 SE15      30.14F WCI  27
MANHATTAN      CLOUDY    38  21  50 S10       30.07F WCI  31
OLATHE IND     CLOUDY    36  20  52 SE13G21   30.14F WCI  27
OLATHE EXE     CLOUDY    35  20  54 SE10      30.14F WCI  27
SALINA         CLOUDY    43  24  47 S13       30.02F
TOPEKA BILLARD CLOUDY    37  22  54 SE12      30.12F WCI  29
TOPEKA FORBES  CLOUDY    38  21  50 SE13      30.10F WCI  30
$$



USA.gov is the U.S. government's official web portal to all federal, state and local government web resources and services.